Regional Weather Roundup
Issued by NWS

Home | Current Version | Previous Version | Text Only | Print | Product List | Glossary On
Versions: 1 2 3 4 5 6 7 8 9 10 11 12 13 14 15 16 17 18 19 20 21 22 23 24 25 26 27 28 29 30 31 32 33 34 35 36 37 38 39 40 41 42 43 44 45 46 47 48 49 50
000
ASUS46 KLOX 221302
RWRCA

SOUTHERN CALIFORNIA WEATHER ROUNDUP
NATIONAL WEATHER SERVICE OXNARD CALIFORNIA
600 AM PDT MON SEP 22 2014

NOTE: "FAIR" INDICATES FEW OR NO CLOUDS BELOW 12,000 FEET WITH NO
SIGNIFICANT WEATHER AND/OR OBSTRUCTIONS TO VISIBILITY.

  -  STATIONS PRECEEDED BY AN ASTERISK (*) ARE NOT NWS OR FAA
     STATIONS AND ARE NOT SUBJECT TO NWS AND FAA QUALITY CONTROL.

CAZ041-042-087-221400-
LA AND ORANGE COUNTY COASTAL AREAS


CITY           SKY/WX    TMP DP  RH WIND       PRES   REMARKS
L.A. DOWNTOWN  CLEAR     63  60  90 CALM      29.95R
L.A. AIRPORT   PTCLDY    65  61  86 CALM      29.95S
LONG BEACH     CLEAR     64  60  87 CALM      29.95R

CITY           SKY/WX    TMP DP  RH WIND       PRES   REMARKS
AVALON           N/A     63 N/A N/A S2          N/A
FULLERTON      CLEAR     62  57  83 CALM      29.94S
*GETTY CENTER    N/A     64  55  72 NE2         N/A
HAWTHORNE      CLEAR     65  61  87 CALM      29.95S
*LOS ALAMITOS  FOG       60  59  99 CALM      29.95S VSB 1
*REDONDO BEACH   N/A     61  57  89 CALM      29.94S
SANTA ANA      CLEAR     68  61  78 CALM      29.95S
STA MONICA APT PTCLDY    64  59  83 CALM      29.96R
*UCLA            N/A     63  57  82 CALM      29.93S

$$

CAZ547-548-048-221400-
LA COUNTY VALLEYS AND INLAND EMPIRE


CITY           SKY/WX    TMP DP  RH WIND       PRES   REMARKS
BURBANK        CLEAR     62  51  67 W3        29.96R
VAN NUYS       CLEAR     62  56  80 CALM      29.96S

CITY           SKY/WX    TMP DP  RH WIND       PRES   REMARKS
CORONA AIRPORT SUNNY     56  54  93 CALM      29.96S
*CHATSWORTH      N/A     60  55  83 CALM      29.93S
CHINO          CLEAR     58  56  93 CALM      29.97S FOG
MARCH AFB      CLEAR     56  53  87 CALM      29.98S
*NORTHRIDGE      N/A     59  55  88 CALM        N/A
ONTARIO        CLEAR     63  57  81 CALM      29.96R
*PASADENA        N/A     63  54  72 CALM        N/A
RIVERSIDE      CLEAR     62  57  83 CALM      29.96S
SAN BERNARDINO NOT AVBL
*SAN GABRIEL     N/A     61  56  84 CALM      29.92S
*WHITEMAN AP   NOT AVBL
*WOODLAND HILL   N/A     57  55  94 CALM        N/A

$$

CAZ054-055-221400-
LA AND SAN BERNARDINO COUNTY MOUNTAINS


CITY           SKY/WX    TMP DP  RH WIND       PRES   REMARKS
*BIG BEAR AIRP SUNNY     36  32  87 CALM      30.27S
MT WILSON NWS    N/A     61  25  25 E10         N/A
SANDBERG       CLEAR     64  45  49 NW8       30.13S
*WARM SPRINGS    N/A     65  44  46 NE3         N/A

$$

CAZ028-029-059-060-099-221400-
ANTELOPE VALLEY AND SURROUNDING AREAS


CITY           SKY/WX    TMP DP  RH WIND       PRES   REMARKS
LANCASTER      CLEAR     61  44  53 SW5       30.03R
PALMDALE       CLEAR     61  36  39 S7        30.04R

CITY           SKY/WX    TMP DP  RH WIND       PRES   REMARKS
29 PALMS       CLEAR     69  41  36 NW6       30.06R
BARSTOW/DAGGET CLEAR     68  43  40 W10       29.99R
BISHOP         CLEAR     51  42  71 NW7       30.11S
CHINA LAKE     CLEAR     61  41  47 CALM      30.00R
EDWARDS AFB    CLEAR     58  42  54 W2        30.01R
MOJAVE         FAIR      66  46  48 CALM      30.04R
NEEDLES        CLEAR     76  44  32 NW3       29.92R
VICTORVILLE    CLEAR     57  43  58 S5        30.05S

$$

CAZ039-040-221400-
VENTURA AND SANTA BARBARA COUNTY COAST


CITY           SKY/WX    TMP DP  RH WIND       PRES   REMARKS
CAMARILLO      CLEAR     62  55  77 CALM      29.94S
NWS OXNARD       N/A     58  55  88 CALM      29.94S
OXNARD AIRPORT CLEAR     59  56  89 E5        29.95R
*POINT MUGU    CLEAR     61  56  83 CALM      29.95S
SBA APT/GOLETA CLEAR     61  57  87 NE5       29.94S
*VENTURA         N/A     59  56  91 NE3       29.99S

$$

CAZ044-045-221400-
VENTURA COUNTY VALLEYS


CITY           SKY/WX    TMP DP  RH WIND       PRES   REMARKS
*SIMI VALLEY     N/A     59  55  88 CALM      29.92R
*OJAI            N/A     52  49  91 CALM      29.91S
*FILLMORE        N/A     56  52  89 CALM      29.86S

$$

CAZ053-221400-
VENTURA COUNTY MOUNTAINS


CITY           SKY/WX    TMP DP  RH WIND       PRES   REMARKS
*LOCKWOOD VLY    N/A     41  32  70 MISG        N/A
*ROSE VALLEY     N/A     43  43 100 MISG        N/A

$$

CAZ034-035-036-221400-
CENTRAL COAST AND SANTA YNEZ VALLEY


CITY           SKY/WX    TMP DP  RH WIND       PRES   REMARKS
SAN LUIS OBISP CLOUDY    58  56  93 CALM      29.98R
SANTA MARIA    CLOUDY    59  55  87 CALM      29.98R

CITY           SKY/WX    TMP DP  RH WIND       PRES   REMARKS
*CAL POLY SLO    N/A     57  57 100 CALM        N/A
*LOMPOC        CLOUDY    63  55  77 CALM      29.98R
*PISMO BEACH     N/A     59  57  92 NE2       29.98S
*SANTA YNEZ    FAIR      59  55  88 CALM      29.97S

$$

CAZ037-038-051-221400-
SAN LUIS OBISPO COUNTY INTERIOR AND CUYAMA VALLEY


CITY           SKY/WX    TMP DP  RH WIND       PRES   REMARKS
*CUYAMA          N/A     54  48  80 NE3       29.95R
PASO ROBLES    CLOUDY    59  56  89 CALM      30.01S

$$

CAZ032-033-061-221400-
SOUTHERN DESERTS


CITY           SKY/WX    TMP DP  RH WIND       PRES   REMARKS
BLYTHE         CLEAR     72  47  40 N6        29.89R
IMPERIAL       CLEAR     75  50  41 CALM      29.85R
PALM SPRINGS   CLEAR     77  51  40 NW5       29.90R
THERMAL        CLEAR     68  55  63 N5        29.84R

$$

ELSEWHERE ACROSS THE WESTERN UNITED STATES AND MEXICO


CITY           SKY/WX    TMP DP  RH WIND       PRES   REMARKS
DENVER, CO     CLOUDY    61  49  64 S21G26    30.19S
GRAND CANYON,  CLEAR     38  37  97 NE3       30.32R
HONOLULU, HI   PTCLDY    80  69  69 VRB3      29.99S
KAHULUI, MAUI  CLEAR     72  67  84 SE3       29.99F
LAKE TAHOE, CA CLEAR     40  34  79 S3        30.24R
LAS VEGAS, NV  CLEAR     75  53  46 S7        29.97R
MAMMOTH LAKES, FAIR      39  36  87 CALM      30.29S
MEXICO CITY, M CLOUDY    57  54  88 E7        30.33R
PHOENIX, AZ    PTCLDY    81  57  43 E7        29.93R
PORTLAND, OR   MOCLDY    62  55  77 SE6       30.00R
RENO, NV       CLEAR     54  44  69 N3        30.15R
SALT LAKE CITY PTCLDY    61  56  83 W3        30.15R
SAN DIEGO, CA  MOCLDY    69  61  75 CALM      29.96S
SAN FRANCISCO, CLOUDY    66  59  78 W10       30.00S
SAN JOSE, CA   CLOUDY    62  57  83 CALM      30.01R
SEATTLE, WA    CLOUDY    62  56  80 S7        29.98S
TIJUANA, MEX   MOCLDY    64  57  77 CALM      29.98S

$$

STATION/POSITION TIME  TEMP    WIND        PRES    VSBY  WAVE
                       AIR SEA DIR/SP/G                  HT/PER
                 (UTC) (F)     (DEG/KT/KT) (MB)    (MI)  (FT/S)
POINT ARGUELLO B NOT AVBL
WEST SANTA BARBA 1200   63 64  330/ 14/ 16 1013.5F         4/11
POINT CONCEPTION NOT AVBL
EAST SANTA BARBA 1200   66 66   60/  6/  8 1013.9F
SANTA MONICA BAY 1200   67 72  230/  2/  4 1013.7F         3/14



USA.gov is the U.S. government's official web portal to all federal, state and local government web resources and services.